KF5JED-13 Weather Reports


Display with metric or nautical units.
time (UTC)temp
F
wind
direction
speed
MPH
gust
MPH
rain 1hr
in
rain 24hr
in
rain mn
in
humidity
%
barometer
mb
20260508025606 62 156 6.0 8.0 0.00 0.00 0.00 37 1013.8
20260508025103 62 159 6.0 9.0 0.00 0.00 0.00 36 1013.9
20260508024559 62 153 8.0 9.0 0.00 0.00 0.00 35 1013.9
20260508024056 63 167 6.0 9.0 0.00 0.00 0.00 34 1013.6
20260508023552 64 164 6.0 11.0 0.00 0.00 0.00 33 1013.8
20260508023050 61 154 6.0 6.0 0.00 0.00 0.00 35 1013.6
20260508022546 63 151 6.0 7.0 0.00 0.00 0.00 33 1013.5
20260508022043 63 148 6.0 7.0 0.00 0.00 0.00 33 1013.7
20260508021539 61 154 5.0 6.0 0.00 0.00 0.00 34 1013.6
20260508021034 62 153 4.0 5.0 0.00 0.00 0.00 32 1013.5
20260508020532 64 156 2.0 4.0 0.00 0.00 0.00 31 1013.3
20260508020030 64 150 3.0 4.0 0.00 0.00 0.00 31 1013.6
20260508015527 63 156 3.0 4.0 0.00 0.00 0.00 31 1013.5
20260508015024 65 158 4.0 4.0 0.00 0.00 0.00 30 1013.5
20260508014521 67 148 4.0 6.0 0.00 0.00 0.00 28 1013.5
20260508014017 66 139 4.0 4.0 0.00 0.00 0.00 29 1013.2
20260508013513 68 178 3.0 4.0 0.00 0.00 0.00 29 1013.1
20260508013010 70 193 4.0 6.0 0.00 0.00 0.00 27 1013.2
20260508012507 71 200 4.0 9.0 0.00 0.00 0.00 27 1013.2
20260508012004 71 212 5.0 9.0 0.00 0.00 0.00 26 1013.1
20260508011503 72 209 7.0 9.0 0.00 0.00 0.00 26 1013.0
20260508010959 73 211 8.0 11.0 0.00 0.00 0.00 26 1013.3
20260508010451 73 211 10.0 17.0 0.00 0.00 0.00 25 1013.1
20260508005948 73 194 14.0 15.0 0.00 0.00 0.00 25 1013.2
20260508005445 74 206 12.0 16.0 0.00 0.00 0.00 25 1013.1
20260508004941 74 218 7.0 11.0 0.00 0.00 0.00 25 1013.1
20260508004437 74 229 7.0 11.0 0.00 0.00 0.00 25 1013.1
20260508003934 74 219 8.0 14.0 0.00 0.00 0.00 25 1013.1
20260508003431 75 199 14.0 18.0 0.00 0.00 0.00 24 1013.1
20260508002928 75 207 11.0 13.0 0.00 0.00 0.00 24 1013.1
20260508002425 75 223 6.0 15.0 0.00 0.00 0.00 25 1013.1
20260508001921 75 197 8.0 19.0 0.00 0.00 0.00 25 1013.1
20260508001417 75 213 9.0 15.0 0.00 0.00 0.00 25 1013.0
20260508000914 75 274 3.0 14.0 0.00 0.00 0.00 25 1013.0
20260508000412 76 212 6.0 9.0 0.00 0.00 0.00 24 1013.1
20260507235907 76 225 11.0 16.0 0.00 0.00 0.00 23 1013.1
20260507235404 75 199 6.0 17.0 0.00 0.00 0.00 24 1013.3
20260507234901 76 214 7.0 12.0 0.00 0.00 0.00 24 1013.0
20260507234359 76 235 4.0 11.0 0.00 0.00 0.00 24 1013.0
20260507233854 76 212 9.0 11.0 0.00 0.00 0.00 23 1012.9
20260507233351 76 218 13.0 20.0 0.00 0.00 0.00 23 1013.0
20260507232849 76 205 13.0 15.0 0.00 0.00 0.00 23 1012.9
20260507232345 76 213 15.0 17.0 0.00 0.00 0.00 23 1013.1
20260507231843 76 205 11.0 14.0 0.00 0.00 0.00 23 1013.2
20260507231340 77 287 2.0 6.0 0.00 0.00 0.00 24 1013.2
20260507230836 77 210 8.0 8.0 0.00 0.00 0.00 23 1013.2
20260507230333 76 235 11.0 14.0 0.00 0.00 0.00 23 1013.3
20260507225833 75 223 10.0 21.0 0.00 0.00 0.00 24 1013.3
20260507225329 76 223 9.0 9.0 0.00 0.00 0.00 24 1013.5
20260507224826 76 277 4.0 11.0 0.00 0.00 0.00 25 1013.5
20260507224323 76 275 4.0 9.0 0.00 0.00 0.00 23 1013.5
20260507223819 76 314 2.0 12.0 0.00 0.00 0.00 24 1013.5
20260507223315 76 255 7.0 11.0 0.00 0.00 0.00 24 1013.7
20260507222812 76 284 2.0 12.0 0.00 0.00 0.00 24 1013.6
20260507222308 76 241 3.0 9.0 0.00 0.00 0.00 24 1013.7
20260507221806 76 240 7.0 14.0 0.00 0.00 0.00 24 1013.7
20260507221302 75 315 3.0 7.0 0.00 0.00 0.00 24 1013.8
20260507220758 75 231 13.0 16.0 0.00 0.00 0.00 25 1013.8
20260507220257 75 212 11.0 15.0 0.00 0.00 0.00 25 1013.7
20260507215752 75 225 2.0 7.0 0.00 0.00 0.00 25 1013.8
20260507215250 75 221 9.0 14.0 0.00 0.00 0.00 25 1014.1
20260507214747 74 207 14.0 21.0 0.00 0.00 0.00 25 1014.2
20260507214244 74 253 4.0 8.0 0.00 0.00 0.00 26 1014.3
20260507213739 74 195 4.0 19.0 0.00 0.00 0.00 26 1014.5
20260507213237 73 223 12.0 19.0 0.00 0.00 0.00 26 1014.3
20260507212733 74 227 11.0 18.0 0.00 0.00 0.00 25 1014.7
20260507212230 73 221 14.0 19.0 0.00 0.00 0.00 24 1014.6
20260507211726 74 294 3.0 8.0 0.00 0.00 0.00 25 1014.7
20260507211222 73 232 5.0 12.0 0.00 0.00 0.00 26 1014.8
20260507210720 73 208 9.0 15.0 0.00 0.00 0.00 24 1015.0
20260507210216 73 286 6.0 17.0 0.00 0.00 0.00 26 1014.7
20260507205713 72 259 8.0 12.0 0.00 0.00 0.00 27 1015.0
20260507205209 72 216 6.0 15.0 0.00 0.00 0.00 27 1015.0
20260507204706 73 212 11.0 15.0 0.00 0.00 0.00 26 1015.1
20260507204204 72 231 5.0 7.0 0.00 0.00 0.00 28 1015.2
20260507203702 72 228 9.0 15.0 0.00 0.00 0.00 27 1015.7
20260507203159 72 190 10.0 12.0 0.00 0.00 0.00 29 1015.5
20260507202654 72 293 5.0 17.0 0.00 0.00 0.00 31 1015.7
20260507202150 71 321 4.0 15.0 0.00 0.00 0.00 29 1015.9
20260507201645 72 243 10.0 15.0 0.00 0.00 0.00 29 1015.8
20260507201143 71 175 6.0 13.0 0.00 0.00 0.00 32 1015.9
20260507200639 72 208 15.0 15.0 0.00 0.00 0.00 30 1016.0
20260507200135 71 170 6.0 15.0 0.00 0.00 0.00 31 1016.2
20260507195632 69 257 6.0 15.0 0.00 0.00 0.00 33 1016.3
20260507195129 70 217 5.0 6.0 0.00 0.00 0.00 32 1016.2
20260507194626 71 221 9.0 15.0 0.00 0.00 0.00 32 1016.7
20260507194121 69 192 4.0 14.0 0.00 0.00 0.00 33 1016.7
20260507193618 70 219 14.0 18.0 0.00 0.00 0.00 32 1016.9
20260507193115 69 232 2.0 9.0 0.00 0.00 0.00 35 1016.7
20260507192612 69 203 12.0 15.0 0.00 0.00 0.00 34 1017.0
20260507192109 69 233 10.0 12.0 0.00 0.00 0.00 35 1016.9
20260507191604 68 239 8.0 21.0 0.00 0.00 0.00 38 1017.0
20260507191101 68 297 5.0 8.0 0.00 0.00 0.00 37 1017.2
20260507190558 68 223 11.0 15.0 0.00 0.00 0.00 37 1017.2
20260507190057 68 215 5.0 14.0 0.00 0.00 0.00 39 1017.3
20260507185555 67 305 3.0 11.0 0.00 0.00 0.00 40 1017.2
20260507185051 66 287 7.0 11.0 0.00 0.00 0.00 42 1017.6
20260507184550 68 249 5.0 10.0 0.00 0.00 0.00 41 1017.6
20260507184047 67 298 5.0 19.0 0.00 0.00 0.00 40 1017.7
20260507183543 67 207 12.0 18.0 0.00 0.00 0.00 40 1017.8
20260507183040 66 241 4.0 11.0 0.00 0.00 0.00 42 1018.1
20260507182536 64 227 8.0 23.0 0.00 0.00 0.00 45 1018.1
20260507182032 65 237 5.0 14.0 0.00 0.00 0.00 44 1018.2
20260507181530 65 208 14.0 20.0 0.00 0.00 0.00 43 1018.4
20260507181026 64 228 4.0 17.0 0.00 0.00 0.00 45 1018.5
20260507180522 65 226 15.0 18.0 0.00 0.00 0.00 45 1018.6
20260507180019 64 319 4.0 10.0 0.00 0.00 0.00 46 1018.7
20260507175515 64 217 7.0 16.0 0.00 0.00 0.00 45 1018.7
20260507175013 64 227 12.0 15.0 0.00 0.00 0.00 46 1018.9
20260507174510 63 233 9.0 20.0 0.00 0.00 0.00 47 1018.8
20260507174008 62 233 13.0 17.0 0.00 0.00 0.00 48 1019.1
20260507173504 62 220 14.0 19.0 0.00 0.00 0.00 49 1019.1
20260507173002 62 300 6.0 13.0 0.00 0.00 0.00 50 1019.5
20260507172458 62 237 4.0 11.0 0.00 0.00 0.00 49 1019.2
20260507171954 61 250 6.0 15.0 0.00 0.00 0.00 51 1019.5
20260507171450 61 249 2.0 11.0 0.00 0.00 0.00 52 1019.5
20260507170948 60 228 12.0 14.0 0.00 0.00 0.00 52 1019.5
20260507170444 59 220 10.0 21.0 0.00 0.00 0.00 52 1019.6
20260507165940 60 203 8.0 15.0 0.00 0.00 0.00 52 1019.7
20260507165437 59 271 2.0 14.0 0.00 0.00 0.00 53 1019.8
20260507164932 59 231 6.0 15.0 0.00 0.00 0.00 54 1019.8
20260507164430 59 223 14.0 17.0 0.00 0.00 0.00 53 1019.8
20260507163926 57 206 5.0 21.0 0.00 0.00 0.00 56 1019.9
20260507163424 59 204 18.0 23.0 0.00 0.00 0.00 54 1019.9
20260507162921 58 226 15.0 15.0 0.00 0.00 0.00 54 1020.1
20260507162416 59 239 7.0 14.0 0.00 0.00 0.00 54 1020.1
20260507161914 57 202 9.0 15.0 0.00 0.00 0.00 57 1020.2
20260507161409 56 209 11.0 14.0 0.00 0.00 0.00 57 1020.0
20260507160906 57 209 10.0 19.0 0.00 0.00 0.00 55 1020.0
20260507160402 56 228 10.0 17.0 0.00 0.00 0.00 58 1020.2
20260507155858 56 227 11.0 13.0 0.00 0.00 0.00 59 1020.2
20260507155354 54 274 5.0 11.0 0.00 0.00 0.00 64 1020.2
20260507154851 54 238 11.0 15.0 0.00 0.00 0.00 64 1020.4
20260507154348 53 238 5.0 12.0 0.00 0.00 0.00 65 1020.4
20260507153932 53 199 13.0 19.0 0.00 0.00 0.00 64 1020.2
20260507153846 53 199 13.0 19.0 0.00 0.00 0.00 64 1020.2
20260507153342 53 208 8.0 15.0 0.00 0.00 0.00 66 1020.4
20260507153139 52 223 4.0 8.0 0.00 0.00 0.00 68 1020.5
20260507152838 52 223 4.0 8.0 0.00 0.00 0.00 68 1020.5
20260507152334 52 229 7.0 11.0 0.00 0.00 0.00 68 1020.5
20260507152240 53 210 4.0 7.0 0.00 0.00 0.00 69 1020.6
20260507151831 53 210 4.0 7.0 0.00 0.00 0.00 69 1020.6
20260507151327 51 189 2.0 7.0 0.00 0.00 0.00 72 1020.8
20260507150825 51 308 1.0 11.0 0.00 0.00 0.00 74 1020.5
20260507150321 50 239 3.0 7.0 0.00 0.00 0.00 75 1020.7
20260507145817 50 224 5.0 5.0 0.00 0.00 0.00 76 1020.7
20260507145313 48 204 3.0 11.0 0.00 0.00 0.00 78 1020.8
20260507144811 48 223 11.0 13.0 0.00 0.00 0.00 80 1020.8
20260507144308 48 229 4.0 7.0 0.00 0.00 0.00 81 1020.8
20260507143804 47 331 5.0 11.0 0.00 0.00 0.00 84 1020.8
20260507143302 47 314 4.0 8.0 0.00 0.00 0.00 85 1021.0
20260507142758 46 314 4.0 7.0 0.00 0.00 0.00 86 1021.0
20260507142254 45 216 9.0 10.0 0.00 0.00 0.00 88 1020.9
20260507141751 45 292 6.0 9.0 0.00 0.00 0.00 89 1021.2
20260507141248 44 224 4.0 12.0 0.00 0.00 0.00 91 1021.4
20260507140744 44 182 2.0 7.0 0.00 0.00 0.00 93 1021.1
20260507140242 43 217 4.0 11.0 0.00 0.00 0.00 94 1021.4
20260507135738 43 342 4.0 9.0 0.00 0.00 0.00 96 1021.4
20260507135236 43 306 3.0 8.0 0.00 0.00 0.00 96 1021.1
20260507134732 42 260 2.0 8.0 0.00 0.00 0.00 97 1021.4
20260507134228 42 302 2.0 5.0 0.00 0.00 0.00 97 1021.4
20260507133724 42 192 2.0 11.0 0.00 0.00 0.00 97 1021.6
20260507133221 42 303 1.0 11.0 0.00 0.00 0.00 97 1021.2
20260507132719 41 166 2.0 5.0 0.00 0.00 0.00 97 1021.5
20260507132215 41 299 7.0 8.0 0.00 0.00 0.00 97 1021.5
20260507131712 41 278 2.0 5.0 0.00 0.00 0.00 97 1021.4
20260507131210 41 202 4.0 7.0 0.00 0.00 0.00 97 1021.2
20260507130706 41 310 6.0 6.0 0.00 0.00 0.00 97 1021.6
20260507130204 40 293 3.0 6.0 0.00 0.00 0.00 97 1021.5
20260507125702 40 298 7.0 8.0 0.00 0.00 0.00 97 1021.4
20260507125200 40 354 2.0 5.0 0.00 0.00 0.00 97 1021.2
20260507124656 40 330 6.0 7.0 0.00 0.00 0.00 97 1021.2
20260507124153 40 286 2.0 6.0 0.00 0.00 0.00 97 1020.9
20260507123652 40 40 1.0 5.0 0.00 0.00 0.00 97 1021.1
20260507123148 39 309 4.0 6.0 0.00 0.00 0.00 97 1021.0
20260507122644 40 316 5.0 5.0 0.00 0.00 0.00 97 1021.0
20260507122139 40 311 5.0 7.0 0.00 0.00 0.00 97 1021.0
20260507121636 39 318 5.0 7.0 0.00 0.00 0.00 96 1020.9
20260507121132 40 298 6.0 6.0 0.00 0.00 0.00 96 1020.9
20260507120628 40 324 5.0 6.0 0.00 0.00 0.00 96 1021.0
20260507120125 40 330 4.0 5.0 0.00 0.00 0.00 96 1020.8
20260507115621 40 325 2.0 6.0 0.00 0.00 0.00 96 1021.0
20260507115117 40 327 4.0 4.0 0.00 0.00 0.00 96 1020.9
20260507114613 40 327 3.0 6.0 0.00 0.00 0.00 96 1020.8
20260507114110 40 338 3.0 5.0 0.00 0.00 0.00 96 1020.8
20260507113608 40 328 4.0 6.0 0.00 0.00 0.00 95 1020.8
20260507113105 40 317 3.0 4.0 0.00 0.00 0.00 95 1020.9
20260507112603 40 318 5.0 6.0 0.00 0.00 0.00 95 1020.8
20260507112059 40 339 4.0 5.0 0.00 0.00 0.00 95 1020.7
20260507111556 40 347 4.0 5.0 0.00 0.00 0.00 94 1020.7
20260507111053 40 322 4.0 7.0 0.00 0.00 0.00 94 1020.8
20260507110549 40 318 5.0 7.0 0.00 0.00 0.00 94 1020.7
20260507110046 40 320 4.0 7.0 0.00 0.00 0.00 94 1021.0
20260507105542 40 305 6.0 8.0 0.00 0.00 0.00 93 1020.9
20260507105038 40 337 4.0 5.0 0.00 0.00 0.00 93 1020.8
20260507104536 41 311 3.0 7.0 0.00 0.00 0.00 93 1020.8
20260507104032 41 346 2.0 5.0 0.00 0.00 0.00 93 1020.8
20260507103528 40 348 2.0 4.0 0.00 0.00 0.00 92 1020.8
20260507103025 40 29 2.0 4.0 0.00 0.00 0.00 92 1020.9
20260507102522 40 19 2.0 5.0 0.00 0.00 0.00 92 1020.9
20260507102018 40 60 0.0 2.0 0.00 0.00 0.00 91 1020.9
20260507101514 40 346 1.0 2.0 0.00 0.00 0.00 91 1020.9
20260507101010 40 18 4.0 4.0 0.00 0.00 0.00 91 1021.0
20260507100508 40 9 3.0 4.0 0.00 0.00 0.00 91 1021.0
20260507100005 39 347 1.0 2.0 0.00 0.00 0.00 90 1020.9
20260507095503 40 19 4.0 4.0 0.00 0.00 0.00 90 1020.9
20260507094954 40 29 0.0 4.0 0.00 0.00 0.00 90 1021.0
20260507094450 40 16 1.0 7.0 0.00 0.00 0.00 89 1020.9
20260507093947 39 20 3.0 3.0 0.00 0.00 0.00 89 1020.8
20260507093445 40 112 1.0 2.0 0.00 0.00 0.00 88 1020.7
20260507092943 40 111 1.0 2.0 0.00 0.00 0.00 88 1020.6
20260507092439 40 44 0.0 0.0 0.00 0.00 0.00 88 1020.9
20260507091936 40 55 2.0 2.0 0.00 0.00 0.00 87 1020.8
20260507091432 40 103 0.0 1.0 0.00 0.00 0.00 86 1020.7
20260507090928 41 89 0.0 1.0 0.00 0.00 0.00 86 1020.7
20260507090425 41 38 0.0 2.0 0.00 0.00 0.00 86 1020.8
20260507085921 42 66 0.0 1.0 0.00 0.00 0.00 85 1020.5
20260507085418 42 49 2.0 2.0 0.00 0.00 0.00 84 1020.7
20260507084916 42 74 2.0 2.0 0.00 0.00 0.00 84 1020.6
20260507084412 42 93 2.0 2.0 0.00 0.00 0.00 83 1020.5
20260507083910 43 67 2.0 2.0 0.00 0.00 0.00 83 1020.5
20260507083406 43 39 3.0 4.0 0.00 0.00 0.00 83 1020.7
20260507082902 43 28 3.0 4.0 0.00 0.00 0.00 82 1020.7
20260507082358 43 39 3.0 4.0 0.00 0.00 0.00 81 1020.7
20260507081855 44 40 3.0 4.0 0.00 0.00 0.00 81 1020.8
20260507081351 44 65 3.0 4.0 0.00 0.00 0.00 80 1020.7
20260507080848 44 57 4.0 5.0 0.00 0.00 0.00 80 1020.6
20260507080344 44 70 5.0 6.0 0.00 0.00 0.00 80 1020.5
20260507075839 44 81 4.0 6.0 0.00 0.00 0.00 79 1020.5
20260507075336 45 80 0.0 4.0 0.00 0.00 0.00 79 1020.8
20260507074832 45 87 4.0 10.0 0.00 0.00 0.00 78 1020.4
20260507074330 45 136 6.0 7.0 0.00 0.00 0.00 76 1020.8
20260507073827 45 52 4.0 6.0 0.00 0.00 0.00 75 1021.1
20260507073324 45 16 6.0 9.0 0.00 0.00 0.00 74 1021.5
20260507072821 45 31 8.0 10.0 0.00 0.00 0.00 73 1021.8
20260507072318 45 8 6.0 7.0 0.00 0.00 0.00 72 1021.9
20260507071815 45 24 8.0 9.0 0.00 0.00 0.00 72 1021.5
20260507071312 46 16 8.0 11.0 0.00 0.00 0.00 71 1021.2
20260507070809 46 11 8.0 9.0 0.00 0.00 0.00 70 1021.7
20260507070306 46 17 5.0 11.0 0.00 0.00 0.00 70 1021.7
20260507065803 46 1 10.0 12.0 0.00 0.00 0.00 69 1021.9
20260507065259 46 13 8.0 10.0 0.00 0.00 0.00 68 1022.2
20260507064756 46 9 6.0 7.0 0.00 0.00 0.00 68 1022.1
20260507064255 46 30 5.0 8.0 0.00 0.00 0.00 67 1021.9
20260507063753 47 46 7.0 9.0 0.00 0.00 0.00 67 1022.0
20260507063249 47 8 7.0 10.0 0.00 0.00 0.00 67 1022.0
20260507062746 47 352 6.0 9.0 0.00 0.00 0.00 67 1021.8
20260507062243 47 48 8.0 11.0 0.00 0.00 0.00 66 1021.6
20260507061741 47 27 6.0 9.0 0.00 0.00 0.00 66 1021.7
20260507061239 47 28 6.0 8.0 0.00 0.00 0.00 66 1021.9
20260507060737 47 44 7.0 13.0 0.00 0.00 0.00 66 1021.6
20260507060233 47 50 9.0 12.0 0.00 0.00 0.00 66 1021.5
20260507055730 47 31 11.0 13.0 0.00 0.00 0.00 65 1021.1
20260507055225 47 39 9.0 14.0 0.00 0.00 0.00 65 1020.9
20260507054721 47 16 10.0 13.0 0.00 0.00 0.00 65 1020.8
20260507054218 47 40 9.0 13.0 0.00 0.00 0.00 65 1020.9
20260507053716 47 36 6.0 13.0 0.00 0.00 0.00 65 1021.1
20260507053214 47 60 7.0 14.0 0.00 0.00 0.00 65 1021.1
20260507052713 47 37 9.0 15.0 0.00 0.00 0.00 65 1020.8
20260507052208 47 38 7.0 14.0 0.00 0.00 0.00 65 1020.7
20260507051706 47 47 9.0 15.0 0.00 0.00 0.00 65 1021.0
20260507051203 47 37 6.0 16.0 0.00 0.00 0.00 66 1020.8
20260507050659 47 6 13.0 15.0 0.00 0.00 0.00 66 1020.9
20260507050156 47 22 11.0 18.0 0.00 0.00 0.00 65 1020.9
20260507045653 48 20 12.0 19.0 0.00 0.00 0.00 64 1020.9
20260507045149 48 35 15.0 18.0 0.00 0.00 0.00 63 1021.1
20260507044646 48 10 10.0 19.0 0.00 0.00 0.00 63 1021.0
20260507044143 48 24 8.0 13.0 0.00 0.00 0.00 63 1021.0
20260507043639 48 15 11.0 14.0 0.00 0.00 0.00 63 1020.9
20260507043136 48 40 13.0 15.0 0.00 0.00 0.00 62 1020.8
20260507042632 48 22 10.0 15.0 0.00 0.00 0.00 62 1020.7
20260507042121 48 19 11.0 16.0 0.00 0.00 0.00 62 1020.6
20260507041619 48 7 11.0 18.0 0.00 0.00 0.00 62 1020.7
20260507041116 48 9 11.0 15.0 0.00 0.00 0.00 61 1020.2
20260507040612 49 41 11.0 21.0 0.00 0.00 0.00 61 1020.2
20260507040103 49 20 15.0 18.0 0.00 0.00 0.00 60 1020.2
20260507035559 49 23 12.0 18.0 0.00 0.00 0.00 60 1020.2
20260507035055 49 15 17.0 24.0 0.00 0.00 0.00 60 1020.5
20260507034552 49 26 14.0 17.0 0.00 0.00 0.00 60 1020.1
20260507034050 50 7 17.0 22.0 0.00 0.00 0.00 60 1020.5
20260507033548 50 23 13.0 17.0 0.00 0.00 0.00 60 1020.1
20260507033045 50 12 15.0 17.0 0.00 0.00 0.00 61 1020.1
20260507032542 50 31 16.0 23.0 0.00 0.00 0.00 61 1019.9
20260507032038 50 25 17.0 27.0 0.00 0.00 0.00 62 1020.1
20260507031535 50 35 13.0 23.0 0.00 0.00 0.00 62 1020.1
20260507031032 51 41 14.0 21.0 0.00 0.00 0.00 61 1020.0
20260507030529 52 23 15.0 25.0 0.00 0.00 0.00 57 1019.4
20260507030027 52 5 12.0 20.0 0.00 0.00 0.00 56 1019.6